Home   Weather   37°49'S, 145°11'E   Past weeks
Flag for Australia

Past Weather in 37°49'S, 145°11'E, Australia — Yesterday and Last 2 Weeks

Now
50 °F

Clear.


Feels Like: 43 °F
Forecast: 54 / 46 °F
Wind: 22 mph from North

Location: Melbourne Airport

Current Time: Jun 18, 2019 at 3:30:37 am

Latest Report: Jun 18, 2019 at 3:00 am


Visibility: 10 mi

Pressure: 30.04 "Hg

Humidity: 88%

Dew Point: 46 °F

Location of 37°49'S, 145°11'ELocation

Past Weather in 37°49'S, 145°11'E — Graph

°F

37°49'S, 145°11'E Temperature Yesterday

Maximum temperature yesterday: 63 °F (at 2:00 pm)
Minimum temperature yesterday: 45 °F (at 3:30 am)
Average temperature yesterday: 51 °F

High & Low Weather Summary for the Past Weeks

 TemperatureHumidityPressure
High64 °F (Jun 8, 2:00 pm)100% (Jun 3, 2:00 am)30.63 "Hg (Jun 3, 2:00 am)
Low41 °F (Jun 7, 11:00 pm)42% (Jun 10, 2:00 pm)29.80 "Hg (Jun 12, 1:00 pm)
Average52 °F78%30.19 "Hg
* Reported Jun 3 2:00 am — Jun 18 2:30 am, 37°49'S, 145°11'E. Weather by CustomWeather, © 2019

Note: Actual official high and low records may vary slightly from our data, if they occured in-between our weather recording intervals... More about our weather records

Advertising

37°49'S, 145°11'E Weather History for the Previous 24 Hours

Scroll right to see more
 ConditionsComfort  
Time TempWeatherWind HumidityBarometerVisibility
2:30 am
Tue, Jun 18
50 °FMostly cloudy.21 mph88%30.04 "HgN/A
2:00 am50 °FPassing clouds.21 mph88%30.04 "HgN/A
1:30 am50 °FPassing clouds.20 mph88%30.04 "HgN/A
1:00 am50 °FPassing clouds.18 mph88%30.07 "HgN/A
12:35 am50 °FPassing clouds.18 mph88%30.07 "HgN/A
12:00 am50 °FPassing clouds.18 mph88%30.07 "HgN/A
11:30 pm
Mon, Jun 17
50 °FClear.22 mph88%30.07 "Hg10 mi
11:00 pm50 °FPassing clouds.21 mph88%30.09 "HgN/A
10:30 pm50 °FClear.17 mph88%30.09 "Hg10 mi
10:00 pm48 °FPassing clouds.17 mph94%30.09 "HgN/A
9:40 pm48 °FPassing clouds.18 mph94%30.09 "HgN/A
9:00 pm48 °FPassing clouds.13 mph94%30.12 "HgN/A
8:30 pm50 °FClear.14 mph88%30.12 "Hg10 mi
8:00 pm50 °FClear.13 mph88%30.12 "Hg10 mi
7:30 pm50 °FClear.9 mph82%30.12 "Hg10 mi
7:00 pm50 °FClear.10 mph88%30.15 "Hg10 mi
6:30 pm50 °FClear.12 mph82%30.15 "Hg10 mi
6:00 pm52 °FPassing clouds.10 mph72%30.15 "HgN/A
5:30 pm54 °FPassing clouds.10 mph67%30.12 "HgN/A
5:00 pm55 °FScattered clouds.10 mph63%30.12 "HgN/A
4:30 pm59 °FPassing clouds.10 mph55%30.12 "HgN/A
4:00 pm59 °FPassing clouds.10 mph55%30.12 "HgN/A
3:30 pm63 °FPassing clouds.10 mph45%30.12 "HgN/A
3:00 pm63 °FPassing clouds.10 mph45%30.12 "HgN/A
2:30 pm63 °FPassing clouds.12 mph45%30.12 "HgN/A
2:00 pm63 °FPassing clouds.13 mph45%30.12 "HgN/A
1:30 pm61 °FPassing clouds.10 mph59%30.15 "HgN/A
1:00 pm61 °FPassing clouds.13 mph59%30.15 "HgN/A
12:30 pm61 °FPassing clouds.13 mph59%30.15 "HgN/A
12:00 pm59 °FPassing clouds.14 mph63%30.18 "HgN/A
11:30 am59 °FPassing clouds.13 mph55%30.18 "HgN/A
11:00 am57 °FPassing clouds.13 mph63%30.18 "HgN/A
10:00 am54 °FSunny.12 mph72%30.21 "Hg10 mi
9:30 am50 °FSunny.13 mph76%30.21 "Hg10 mi
9:00 am48 °FSunny.14 mph76%30.21 "Hg10 mi
8:30 am46 °FSunny.15 mph82%30.21 "Hg10 mi
8:00 am46 °FScattered clouds.13 mph82%30.21 "HgN/A
7:30 am45 °FPassing clouds.14 mph87%30.18 "HgN/A
7:00 am46 °FPassing clouds.13 mph82%30.21 "HgN/A
6:30 am45 °FPassing clouds.13 mph87%30.21 "HgN/A
6:00 am46 °FPassing clouds.12 mph82%30.18 "HgN/A
5:30 am45 °FPassing clouds.8 mph87%30.18 "HgN/A
5:00 am45 °FPassing clouds.10 mph87%30.18 "HgN/A
4:30 am45 °FPassing clouds.10 mph87%30.18 "HgN/A
4:00 am46 °FPassing clouds.10 mph82%30.18 "HgN/A
3:30 am45 °FPassing clouds.10 mph87%30.18 "HgN/A
3:00 am46 °FPassing clouds.10 mph87%30.21 "HgN/A
Weather by CustomWeather, © 2019

See weather overview